User: anonymous   Login
Location: Unspecified
(0.0000°N, 0.0000°E)
Time: 00:59:09
(UTC+00:00)
Language:

RAX-2 - Orbit

View from above orbital plane
View from above orbital plane
View from above satellite
View from above satellite

Ground track
Ground track

The orbit data is extracted from the following two-line orbital elements,

1 37853U 11061D   16125.51836481  .00002845  00000-0  17217-3 0  9996
2 37853 101.7189 141.1022 0182455 212.1974 146.7990 14.99478939245355
Epoch (UTC): 04 May 2016 12:26:26
Eccentricity: 0.0182455
inclination: 101.7189°
perigee height: 442 km
apogee height: 695 km
right ascension of ascending node: 141.1022°
argument of perigee: 212.1974°
revolutions per day: 14.99478939
mean anomaly at epoch: 146.7990°
orbit number at epoch: 24535

The dashed part of the orbit path shows where the satellite is in the earth's shadow,  

DLR